Volver al catálogo

STARLINK-37221

ActivoComunicacionesSSO
NORAD 68668·PAYLOAD·🇺🇸 United States

Lanzado Apr 11, 2026 desde Vandenberg Space Force Base

Loading…

Próximos Pases (próximas 24 horas)

TLE

ActualizadoSource: CelesTrak SupGP

Época: Sep 14, 2026, 15:52 UTC

1 68668C 26077G   26257.66159722 -.00025795  00000+0 -80081-3 0  2572
2 68668  97.2843 127.6513 0002024  89.8074 104.8123 15.33448798    10

Sigue STARLINK-37221 en tiempo real con AllMySat

Download on the App Store